• In Hungary
  • List of Countries
  • For 7 days
  • Water Temperature
  • Satellite Maps
  • Weather Map
  • News
  • Weather Widgets
  • user-avatar
    Login

    Hourly Weather Belevo

    Today, 21 October, Sunday

    Time Temperature Precipitation Wind Pressure Humidity
    00:00 +8°C° 0 mm 1 mps 753 mmHg 75%
    01:00 +7°C° 0 mm 1 mps 753 mmHg 77%
    02:00 +7°C° 0 mm 1 mps 754 mmHg 78%
    03:00 +6°C° 0 mm 1 mps 754 mmHg 80%
    04:00 +5°C° 0 mm 2 mps 754 mmHg 81%
    05:00 +5°C° 0 mm 2 mps 754 mmHg 83%
    06:00 +5°C° 0 mm 2 mps 754 mmHg 83%
    07:00 +5°C° 0 mm 2 mps 755 mmHg 83%
    08:00 +5°C° 0 mm 2 mps 755 mmHg 83%
    09:00 +6°C° 0 mm 2 mps 755 mmHg 76%
    10:00 +8°C° 0 mm 2 mps 755 mmHg 68%
    11:00 +10°C° 0 mm 2 mps 756 mmHg 61%
    12:00 +10°C° 0 mm 2 mps 756 mmHg 59%
    13:00 +12°C° 0 mm 2 mps 756 mmHg 56%
    14:00 +13°C° 0 mm 2 mps 756 mmHg 54%
    15:00 +12°C° 0 mm 2 mps 756 mmHg 57%
    16:00 +11°C° 0 mm 1 mps 755 mmHg 61%
    17:00 +10°C° 0 mm 1 mps 755 mmHg 65%
    18:00 +10°C° 0 mm 1 mps 756 mmHg 69%
    19:00 +9°C° 0 mm 1 mps 756 mmHg 72%
    20:00 +8°C° 0 mm 1 mps 756 mmHg 76%
    21:00 +6°C° 0 mm 0 mps 756 mmHg 77%
    22:00 +6°C° 0 mm 0 mps 756 mmHg 79%
    23:00 +6°C° 0 mm 0 mps 756 mmHg 81%

    Tomorrow, 22 October, Monday

    Time Temperature Precipitation Wind Pressure Humidity
    00:00 +5°C° 0 mm 0 mps 756 mmHg 82%
    01:00 +6°C° 0 mm 1 mps 756 mmHg 83%
    02:00 +6°C° 0 mm 1 mps 756 mmHg 84%
    03:00 +6°C° 0 mm 1 mps 756 mmHg 85%
    04:00 +5°C° 0 mm 1 mps 755 mmHg 86%
    05:00 +5°C° 0 mm 1 mps 755 mmHg 87%
    06:00 +5°C° 0 mm 1 mps 755 mmHg 87%
    07:00 +5°C° 0 mm 1 mps 755 mmHg 87%
    08:00 +5°C° 0 mm 1 mps 755 mmHg 87%
    09:00 +6°C° 0 mm 2 mps 755 mmHg 79%
    10:00 +8°C° 0 mm 2 mps 755 mmHg 72%
    11:00 +10°C° 0 mm 2 mps 755 mmHg 64%
    12:00 +11°C° 0 mm 3 mps 754 mmHg 61%
    13:00 +11°C° 0 mm 3 mps 754 mmHg 58%
    14:00 +12°C° 0 mm 3 mps 753 mmHg 55%
    15:00 +11°C° 0 mm 3 mps 752 mmHg 58%
    16:00 +10°C° 0 mm 3 mps 752 mmHg 62%
    17:00 +10°C° 0 mm 2 mps 752 mmHg 66%
    18:00 +9°C° 0 mm 3 mps 751 mmHg 68%
    19:00 +8°C° 0 mm 3 mps 751 mmHg 71%
    20:00 +8°C° 0 mm 3 mps 751 mmHg 73%
    21:00 +8°C° 0.3 mm 3 mps 751 mmHg 76%
    22:00 +7°C° 0.3 mm 4 mps 751 mmHg 80%
    23:00 +7°C° 0.3 mm 4 mps 751 mmHg 83%

    Day after tomorrow, 23 October, Tuesday

    Time Temperature Precipitation Wind Pressure Humidity
    00:00 +7°C° 0.3 mm 4 mps 750 mmHg 83%
    01:00 +7°C° 0.3 mm 4 mps 750 mmHg 83%
    02:00 +7°C° 0.3 mm 4 mps 750 mmHg 83%
    03:00 +6°C° 0 mm 4 mps 750 mmHg 85%
    04:00 +5°C° 0 mm 4 mps 750 mmHg 87%
    05:00 +4°C° 0 mm 3 mps 749 mmHg 89%
    06:00 +4°C° 0 mm 3 mps 749 mmHg 88%
    07:00 +3°C° 0 mm 3 mps 749 mmHg 87%
    08:00 +3°C° 0 mm 3 mps 749 mmHg 87%
    09:00 +4°C° 0 mm 4 mps 749 mmHg 80%
    10:00 +6°C° 0 mm 4 mps 748 mmHg 74%
    11:00 +7°C° 0 mm 5 mps 748 mmHg 68%
    12:00 +7°C° 0 mm 6 mps 747 mmHg 66%
    13:00 +7°C° 0 mm 6 mps 745 mmHg 64%
    14:00 +8°C° 0 mm 7 mps 744 mmHg 62%
    15:00 +6°C° 0.2 mm 8 mps 743 mmHg 65%
    16:00 +5°C° 0.2 mm 8 mps 742 mmHg 68%
    17:00 +5°C° 0.2 mm 8 mps 740 mmHg 72%
    18:00 +5°C° 0.9 mm 9 mps 739 mmHg 74%
    19:00 +3°C° 0.9 mm 9 mps 737 mmHg 76%
    20:00 +3°C° 0.9 mm 10 mps 735 mmHg 79%
    21:00 +5°C° 1.5 mm 10 mps 734 mmHg 80%
    22:00 +5°C° 1.5 mm 10 mps 732 mmHg 82%
    23:00 +5°C° 1.5 mm 10 mps 730 mmHg 83%

    24 October, Wednesday

    Time Temperature Precipitation Wind Pressure Humidity
    00:00 +6°C° 0.5 mm 9 mps 729 mmHg 82%
    01:00 +6°C° 0.5 mm 9 mps 728 mmHg 80%
    02:00 +6°C° 0.5 mm 8 mps 727 mmHg 79%
    03:00 +6°C° 0.8 mm 8 mps 728 mmHg 78%
    04:00 +6°C° 0.8 mm 9 mps 728 mmHg 78%
    05:00 +5°C° 0.8 mm 9 mps 728 mmHg 78%
    06:00 +4°C° 0.2 mm 8 mps 729 mmHg 75%
    07:00 +4°C° 0.2 mm 8 mps 730 mmHg 72%
    08:00 +2°C° 0.2 mm 8 mps 730 mmHg 69%
    09:00 +2°C° 0 mm 9 mps 731 mmHg 65%
    10:00 +3°C° 0 mm 9 mps 731 mmHg 61%
    11:00 +3°C° 0 mm 10 mps 732 mmHg 57%
    12:00 +3°C° 0.2 mm 10 mps 732 mmHg 58%
    13:00 +3°C° 0.2 mm 10 mps 732 mmHg 60%
    14:00 +3°C° 0.2 mm 10 mps 732 mmHg 61%
    15:00 +3°C° 0.2 mm 10 mps 732 mmHg 61%
    16:00 +3°C° 0.2 mm 11 mps 732 mmHg 61%
    17:00 +3°C° 0.2 mm 11 mps 732 mmHg 61%
    18:00 +3°C° 0.4 mm 11 mps 732 mmHg 64%
    19:00 +3°C° 0.4 mm 11 mps 732 mmHg 66%
    20:00 +3°C° 0.4 mm 11 mps 732 mmHg 69%
    21:00 +3°C° 0.6 mm 11 mps 733 mmHg 70%
    22:00 +3°C° 0.6 mm 11 mps 733 mmHg 71%
    23:00 +3°C° 0.6 mm 11 mps 734 mmHg 71%

    25 October, Thursday

    Time Temperature Precipitation Wind Pressure Humidity
    00:00 +3°C° 0.1 mm 10 mps 734 mmHg 72%
    01:00 +2°C° 0.1 mm 9 mps 735 mmHg 73%
    02:00 +2°C° 0.1 mm 8 mps 736 mmHg 74%
    03:00 +2°C° 0 mm 8 mps 736 mmHg 74%
    04:00 +2°C° 0 mm 8 mps 737 mmHg 75%
    05:00 +2°C° 0 mm 8 mps 737 mmHg 75%
    06:00 +2°C° 0 mm 8 mps 737 mmHg 76%
    07:00 +3°C° 0 mm 7 mps 738 mmHg 77%
    08:00 +2°C° 0 mm 7 mps 738 mmHg 78%
    09:00 +3°C° 0 mm 7 mps 738 mmHg 74%
    10:00 +4°C° 0 mm 7 mps 738 mmHg 70%
    11:00 +4°C° 0 mm 7 mps 738 mmHg 66%
    12:00 +4°C° 0 mm 6 mps 738 mmHg 64%
    13:00 +5°C° 0 mm 6 mps 738 mmHg 62%
    14:00 +5°C° 0 mm 6 mps 738 mmHg 60%
    15:00 +5°C° 0 mm 5 mps 737 mmHg 66%
    16:00 +5°C° 0 mm 4 mps 737 mmHg 71%
    17:00 +4°C° 0 mm 4 mps 737 mmHg 76%
    18:00 +4°C° 0 mm 3 mps 737 mmHg 80%
    19:00 +4°C° 0 mm 3 mps 738 mmHg 84%
    20:00 +4°C° 0 mm 3 mps 738 mmHg 88%
    21:00 +4°C° 0 mm 3 mps 738 mmHg 90%
    22:00 +4°C° 0 mm 3 mps 738 mmHg 93%
    23:00 +4°C° 0 mm 3 mps 738 mmHg 95%

    26 October, Friday

    Time Temperature Precipitation Wind Pressure Humidity
    00:00 +4°C° 0 mm 3 mps 739 mmHg 95%
    01:00 +4°C° 0 mm 3 mps 739 mmHg 95%
    02:00 +4°C° 0 mm 3 mps 739 mmHg 94%
    03:00 +4°C° 0 mm 3 mps 739 mmHg 94%
    04:00 +4°C° 0 mm 3 mps 739 mmHg 94%
    05:00 +4°C° 0 mm 3 mps 739 mmHg 94%
    06:00 +4°C° 0 mm 3 mps 739 mmHg 93%
    07:00 +5°C° 0 mm 3 mps 739 mmHg 91%
    08:00 +5°C° 0 mm 3 mps 739 mmHg 90%
    09:00 +6°C° 0.2 mm 4 mps 739 mmHg 90%
    10:00 +7°C° 0.2 mm 4 mps 739 mmHg 89%
    11:00 +8°C° 0.2 mm 4 mps 739 mmHg 88%
    12:00 +8°C° 0.2 mm 5 mps 739 mmHg 87%
    13:00 +9°C° 0.2 mm 5 mps 739 mmHg 86%
    14:00 +9°C° 0.2 mm 5 mps 739 mmHg 85%
    15:00 +9°C° 0 mm 5 mps 739 mmHg 85%
    16:00 +9°C° 0 mm 5 mps 739 mmHg 85%
    17:00 +8°C° 0 mm 5 mps 739 mmHg 85%
    18:00 +8°C° 0 mm 5 mps 739 mmHg 84%
    19:00 +8°C° 0 mm 5 mps 739 mmHg 82%
    20:00 +8°C° 0 mm 5 mps 739 mmHg 81%
    21:00 +8°C° 0.1 mm 5 mps 739 mmHg 81%
    22:00 +7°C° 0.1 mm 4 mps 739 mmHg 81%
    23:00 +7°C° 0.1 mm 4 mps 739 mmHg 81%
    Show more